Flag for U.S.A. Weather past 2 weeks in Augusta, Maine, U.S.A.

Now
39 °F

Passing clouds.


Feels Like: 32 °F
Forecast: 40 / 60 °F
Wind: 10 mph from Northwest

Location: Augusta State Airport

Current Time: May 23, 2015 at 4:12:21 AM

Latest Report: May 23, 2015 at 2:53 AM


Visibility: 10 mi

Pressure: 30.08 "Hg

Humidity: 46%

Dew point: 20 °F

Location of AugustaLocation

Historic Weather in Augusta — Graph

°F

Augusta temperature yesterday

Maximum temperature yesterday: 66 °F (at 12:53 PM)
Minimum temperature yesterday: 45 °F (at 10:53 PM)
Average temperature yesterday: 54 °F

Past Weeks' High & Low Weather Summary

 TemperatureHumidityPressure
High84 °F (May 10, 1:53 PM)100% (May 10, 3:53 AM)30.37 "Hg (May 10, 3:53 AM)
Low39 °F (May 23, 2:53 AM)18% (May 14, 4:53 PM)29.59 "Hg (May 12, 6:53 PM)
Average56 °F64%30.05 "Hg
* Reported May 8 2:53 AM — May 23 2:53 AM, Augusta, Weather by CustomWeather, © 2015

Note: Actual official high and low records may vary slightly from our data, if they occured in-between our weather recording intervals... More about our weather records

Advertising

Augusta weather history for previous 24 hours

 ConditionsComfort  
Time TempWeatherWind HumidityBarometerVisibility
2:53 AM
Sat, May 23
39 °FPassing clouds.10 mph46%30.08 "Hg10 mi
1:53 AM43 °FOvercast.14 mph42%30.05 "Hg10 mi
12:53 AM45 °FOvercast.15 mph51%30.03 "Hg10 mi
11:53 PM
Fri, May 22
46 °FOvercast.13 mph54%30.02 "Hg10 mi
10:53 PM45 °FClear.7 mph56%30.01 "Hg10 mi
9:53 PM47 °FClear.10 mph52%29.99 "Hg10 mi
8:53 PM50 °FSunny.13 mph44%29.97 "Hg10 mi
7:53 PM53 °FSunny.17 mph37%29.93 "Hg10 mi
6:53 PM57 °FPartly sunny.14 mph31%29.90 "Hg10 mi
5:53 PM58 °FPartly sunny.16 mph32%29.87 "Hg10 mi
4:53 PM59 °FOvercast.16 mph42%29.83 "Hg10 mi
3:53 PM59 °FMostly cloudy.8 mph67%29.78 "Hg10 mi
2:53 PM62 °FMostly cloudy.8 mph43%29.76 "Hg10 mi
1:53 PM64 °FScattered clouds.6 mph41%29.74 "Hg10 mi
12:53 PM66 °FPassing clouds.8 mph37%29.75 "Hg10 mi
11:53 AM65 °FPassing clouds.5 mph36%29.76 "Hg10 mi
10:53 AM62 °FSunny.6 mph46%29.77 "Hg10 mi
9:53 AM59 °FSunny.No wind64%29.79 "Hg10 mi
8:53 AM52 °FOvercast.6 mph80%29.80 "Hg10 mi
7:53 AM50 °FPartly sunny.No wind83%29.80 "Hg10 mi
6:53 AM49 °FOvercast.No wind84%29.80 "Hg10 mi
5:53 AM48 °FMostly cloudy.5 mph86%29.79 "Hg10 mi
4:53 AM48 °FOvercast.No wind83%29.78 "Hg10 mi
Weather by CustomWeather, © 2015

See weather overviewHow to use our weather pages